Ortonville, MN

9:20 AM CDT on August 24, 2016 (GMT -0500)
Ortonville Municipal-Martinson

Weather History for KVVV - October, 2013

Change the Weather History Date:

Wednesday, October 2, 2013

  Actual Average (KAQP) Record (KAQP)
Temperature  
Mean Temperature 56 °F -  
Max Temperature 69 °F 62 °F 87 °F (1997)
Min Temperature 42 °F 37 °F 3 °F (1998)
Degree Days  
Heating Degree Days 10    
Growing Degree Days 6 (Base 50)    
Moisture  
Dew Point 43 °F    
Average Humidity 72    
Maximum Humidity 93    
Minimum Humidity 28    
Precipitation  
Precipitation 0.04 in - - ()
Sea Level Pressure  
Sea Level Pressure 29.92 in    
Wind  
Wind Speed 5 mph (East)    
Max Wind Speed 23 mph    
Max Gust Speed 28 mph    
Visibility 10 miles    
Events Rain , Thunderstorm    
Averages and records for this station are not official NWS values.
T = Trace of Precipitation, MM = Missing Value Source: NWS Daily Summary

Daily Weather History Graph

Daily Weather History Graph

Search for Another Location

Airport or City:

Trip Planner

Search our weather history database for the weather conditions in past years. The results will help you decide how hot, cold, wet, or windy it might be!

Date:

Astronomy

Oct. 02, 2013 Rise Set
Actual Time 7:25 AM CDT 7:03 PM CDT
Civil Twilight 6:56 AM CDT 7:32 PM CDT
Nautical Twilight 6:21 AM CDT 8:07 PM CDT
Astronomical Twilight 5:47 AM CDT 8:41 PM CDT
Moon 4:54 AM CDT (10/2) 5:44 PM CDT (10/2)
Length of Visible Light 12h 36m
Length of Day
11h 38m
Waning Crescent, 6% of the Moon is Illuminated
Oct 2
Waning Crescent
Oct 4
New
Oct 11
First Quarter
Oct 18
Full
Oct 26
Last Quarter

Hourly Weather History & Observations

Time (CDT) Temp. Windchill Dew Point Humidity Pressure Visibility Wind Dir Wind Speed Gust Speed Precip Events Conditions
12:13 AM 50.0 °F - 37.4 °F 62% 29.99 in 10.0 mi Calm Calm - N/A   Clear
12:34 AM 48.2 °F - 39.2 °F 71% 30.00 in 10.0 mi Calm Calm - N/A   Clear
12:53 AM 48.2 °F - 37.4 °F 66% 30.00 in 10.0 mi Calm Calm - N/A   Clear
1:13 AM 46.4 °F - 37.4 °F 71% 29.99 in 10.0 mi Calm Calm - N/A   Clear
1:34 AM 46.4 °F - 37.4 °F 71% 29.99 in 10.0 mi Calm Calm - N/A   Clear
1:53 AM 44.6 °F - 37.4 °F 76% 30.00 in 10.0 mi Calm Calm - N/A   Clear
2:14 AM 46.4 °F - 37.4 °F 71% 30.00 in 10.0 mi Calm Calm - N/A   Clear
2:34 AM 44.6 °F - 39.2 °F 81% 29.99 in 10.0 mi Calm Calm - N/A   Clear
2:53 AM 44.6 °F - 39.2 °F 81% 29.99 in 10.0 mi Calm Calm - N/A   Clear
3:14 AM 42.8 °F 41.1 °F 39.2 °F 87% 29.99 in 10.0 mi SE 3.5 mph - N/A   Clear
3:34 AM 42.8 °F 39.3 °F 39.2 °F 87% 29.99 in 10.0 mi SE 5.8 mph - N/A   Clear
3:53 AM 42.8 °F - 39.2 °F 87% 30.00 in 10.0 mi Calm Calm - N/A   Clear
4:14 AM 42.8 °F 41.1 °F 39.2 °F 87% 29.99 in 10.0 mi SE 3.5 mph - N/A   Clear
4:34 AM 44.6 °F 43.1 °F 39.2 °F 81% 29.98 in 10.0 mi SE 3.5 mph - N/A   Clear
4:53 AM 44.6 °F 41.4 °F 37.4 °F 76% 29.97 in 10.0 mi SE 5.8 mph - N/A   Clear
5:14 AM 44.6 °F 41.4 °F 37.4 °F 76% 29.97 in 10.0 mi East 5.8 mph - N/A   Clear
5:34 AM 44.6 °F 41.4 °F 39.2 °F 81% 29.97 in 10.0 mi SSE 5.8 mph - N/A   Clear
5:53 AM 46.4 °F 45.2 °F 42.8 °F 87% 29.97 in 10.0 mi SE 3.5 mph - N/A   Clear
6:14 AM 46.4 °F 44.3 °F 42.8 °F 87% 29.97 in 10.0 mi SSE 4.6 mph - N/A   Clear
6:34 AM 44.6 °F 43.1 °F 39.2 °F 81% 29.98 in 10.0 mi SSE 3.5 mph - N/A   Clear
6:53 AM 44.6 °F 43.1 °F 39.2 °F 81% 29.98 in 10.0 mi SSE 3.5 mph - N/A   Clear
7:14 AM 44.6 °F 41.4 °F 39.2 °F 81% 29.98 in 10.0 mi SE 5.8 mph - N/A   Clear
7:34 AM 44.6 °F 41.4 °F 39.2 °F 81% 29.98 in 10.0 mi SE 5.8 mph - N/A   Clear
7:53 AM 44.6 °F 41.4 °F 37.4 °F 76% 29.97 in 10.0 mi SE 5.8 mph - N/A   Clear
8:14 AM 48.2 °F - 39.2 °F 71% 29.97 in 10.0 mi SE 5.8 mph - N/A   Clear
8:34 AM 48.2 °F - 39.2 °F 71% 29.97 in 10.0 mi SE 4.6 mph - N/A   Clear
8:53 AM 51.8 °F - 39.2 °F 62% 29.97 in 10.0 mi SE 4.6 mph - N/A   Clear
9:14 AM 53.6 °F - 39.2 °F 58% 29.97 in 10.0 mi SE 5.8 mph - N/A   Clear
9:34 AM 55.4 °F - 39.2 °F 54% 29.96 in 10.0 mi SE 9.2 mph - N/A   Clear
9:53 AM 57.2 °F - 39.2 °F 51% 29.97 in 10.0 mi SSE 9.2 mph - N/A   Clear
10:14 AM 60.8 °F - 39.2 °F 45% 29.96 in 10.0 mi SE 10.4 mph 16.1 mph N/A   Clear
10:34 AM 62.6 °F - 39.2 °F 42% 29.96 in 10.0 mi SSE 8.1 mph 16.1 mph N/A   Clear
10:53 AM 62.6 °F - 37.4 °F 39% 29.96 in 10.0 mi SE 11.5 mph - N/A   Clear
11:13 AM 64.4 °F - 37.4 °F 37% 29.94 in 10.0 mi SE 12.7 mph 17.3 mph N/A   Scattered Clouds
11:33 AM 66.2 °F - 37.4 °F 35% 29.92 in 10.0 mi SE 12.7 mph 17.3 mph N/A   Scattered Clouds
11:54 AM 66.2 °F - 37.4 °F 35% 29.92 in 10.0 mi SE 11.5 mph 21.9 mph N/A   Scattered Clouds
12:13 PM 68.0 °F - 37.4 °F 33% 29.91 in 10.0 mi SE 12.7 mph 17.3 mph N/A   Mostly Cloudy
12:33 PM 69.8 °F - 35.6 °F 28% 29.89 in 10.0 mi SE 16.1 mph 21.9 mph N/A   Mostly Cloudy
12:54 PM 64.4 °F - 42.8 °F 45% 29.87 in 10.0 mi ESE 10.4 mph - 0.01 in Rain Light Rain
1:13 PM 64.4 °F - 44.6 °F 49% 29.86 in 7.0 mi SE 15.0 mph 18.4 mph N/A Rain Light Rain
1:33 PM 60.8 °F - 46.4 °F 59% 29.86 in 10.0 mi ESE 16.1 mph 23.0 mph N/A Thunderstorm Unknown
1:54 PM 62.6 °F - 46.4 °F 55% 29.86 in 10.0 mi East 8.1 mph - N/A Thunderstorm Thunderstorm
2:13 PM 62.6 °F - 46.4 °F 55% 29.83 in 7.0 mi East 9.2 mph - N/A   Overcast
2:33 PM 62.6 °F - 46.4 °F 55% 29.81 in 10.0 mi ENE 8.1 mph - N/A Thunderstorm Thunderstorm
2:54 PM 60.8 °F - 46.4 °F 59% 29.83 in 10.0 mi NE 23.0 mph 27.6 mph 0.01 in Rain , Thunderstorm Light Thunderstorms and Rain
3:13 PM 60.8 °F - 46.4 °F 59% 29.84 in 10.0 mi NE 9.2 mph - N/A Thunderstorm Thunderstorm
3:34 PM 59.0 °F - 48.2 °F 67% 29.83 in 10.0 mi NE 9.2 mph - N/A Thunderstorm Overcast
3:54 PM 57.2 °F - 50.0 °F 77% 29.84 in 7.0 mi NE 10.4 mph - 0.01 in Rain , Thunderstorm Thunderstorms and Rain
4:13 PM 55.4 °F - 50.0 °F 82% 29.83 in 10.0 mi ENE 9.2 mph - N/A Thunderstorm Unknown
4:34 PM 55.4 °F - 50.0 °F 82% 29.84 in 10.0 mi NE 12.7 mph - N/A Rain Light Rain
4:54 PM 55.4 °F - 50.0 °F 82% 29.85 in 10.0 mi NNE 15.0 mph - N/A   Overcast
5:13 PM 55.4 °F - 50.0 °F 82% 29.85 in 10.0 mi NNE 15.0 mph 19.6 mph N/A   Overcast
5:34 PM 55.4 °F - 50.0 °F 82% 29.85 in 7.0 mi NNE 17.3 mph 21.9 mph 0.01 in Rain , Thunderstorm Rain
5:54 PM 55.4 °F - 50.0 °F 82% 29.85 in 10.0 mi NE 18.4 mph - 0.01 in   Mostly Cloudy
6:14 PM 55.4 °F - 50.0 °F 82% 29.84 in 10.0 mi ENE 17.3 mph 23.0 mph N/A   Mostly Cloudy
6:33 PM 55.4 °F - 50.0 °F 82% 29.85 in 10.0 mi NE 12.7 mph 19.6 mph N/A   Scattered Clouds
6:54 PM 55.4 °F - 48.2 °F 77% 29.85 in 10.0 mi NE 15.0 mph 21.9 mph N/A   Mostly Cloudy
7:13 PM 55.4 °F - 48.2 °F 77% 29.86 in 10.0 mi ENE 12.7 mph 19.6 mph N/A   Overcast
7:34 PM 55.4 °F - 48.2 °F 77% 29.88 in 10.0 mi NNE 5.8 mph - N/A   Overcast
7:54 PM 53.6 °F - 48.2 °F 82% 29.88 in 10.0 mi NE 4.6 mph - N/A   Overcast
8:13 PM 53.6 °F - 48.2 °F 82% 29.89 in 10.0 mi NE 4.6 mph - N/A   Mostly Cloudy
8:34 PM 53.6 °F - 48.2 °F 82% 29.90 in 10.0 mi North 4.6 mph - N/A   Mostly Cloudy
8:53 PM 53.6 °F - 48.2 °F 82% 29.90 in 10.0 mi North 3.5 mph - N/A   Scattered Clouds
9:13 PM 51.8 °F - 48.2 °F 88% 29.91 in 10.0 mi North 5.8 mph - N/A   Scattered Clouds
9:34 PM 51.8 °F - 48.2 °F 88% 29.91 in 10.0 mi North 5.8 mph - N/A   Clear
9:53 PM 51.8 °F - 48.2 °F 88% 29.91 in 10.0 mi NNW 5.8 mph - N/A   Clear
10:13 PM 50.0 °F - 46.4 °F 87% 29.92 in 10.0 mi North 5.8 mph - N/A   Clear
10:34 PM 50.0 °F - 46.4 °F 87% 29.92 in 10.0 mi North 6.9 mph - N/A   Clear
10:53 PM 48.2 °F - 46.4 °F 93% 29.92 in 10.0 mi North 5.8 mph - N/A   Clear
11:13 PM 48.2 °F - 46.4 °F 93% 29.91 in 10.0 mi North 6.9 mph - N/A   Clear
11:34 PM 48.2 °F - 46.4 °F 93% 29.91 in 10.0 mi North 8.1 mph - N/A   Clear
11:53 PM 48.2 °F - 46.4 °F 93% 29.91 in 10.0 mi North 6.9 mph - N/A   Clear